Flight Information

DEPARTURE
SAN DIEGO/EL CAJON, CA
Elevation:
387
Runways:
9R/27L - 2738x60 - ASPH-G
9L/27R - 5342x100 - ASPH-G
17/35 - 4145x100 - ASPH-G
ATIS:
125.45 619-449-1228
Clearance Delivery:
125.1
Ground:
121.7
Tower:
120.7 123.8
DESTINATION
,
Elevation:
TPA:
1000 (est.)


6744 NM75° True-13° Var61° HDG

Flight Plan:
(click to file on line)

1. Type
2. Aircraft Identification
3. Aircraft Type / Special Equipment
4. True Airspeed
kts
5. Departure Airport
(ICAO code)
6. Arriving Airport
(ICAO code)
7. Cruising Altitude
ft
8. Alternate Airport
(ICAO code)
9. Route of Flight
10. Remarks


00:00:00 Departure ATIS: Destination ATIS:

Clearance Limit:
Route:
Altitude: Expect in minutes
Frequency:
Transponder: (7500 Hijack / 7600 Lost Comms / 7700 Emergency)


KSEE 030715Z AUTO 00000KT 10SM OVC018 20/16 A2996 RMK AO2
Time: 2022-10-03T07:15:00Z
1664781835
Winds: calm
Visibility: 10.0 sm
Clouds (AGL): OVC 1800
Temperature: 20.0 C
Dew Point: 16.0 C
Pressure: 29.958662 in Hgbr


Notes:

Data extracted from FAA Digital Chart Supplement. Effective: 0901Z Thursday, 27 JAN 2022 to 0900z Thursday, 24 MAR 2022
Current ATIS data is provided courtisy of PilotEdge.